Wind_Speed
6 5 5 6 6 7 8 9 9 9 8 7 6 6 6 5 4 4 4 4 4 4 4 4 4 4 4 4 4 5 5 5 5 5 5 5 5 6 6 6 6 6 6
5 5 5 5 6 7 7 8 8 8 7 7 6 6 5 4 4 4 4 4 3 4 4 4 3 4 4 4 4 4 4 5 5 5 5 5 6 6 6 6 6 6 6
5 5 5 6 7 7 8 8 8 8 7 7 6 6 6 5 4 4 4 3 3 3 4 4 4 4 4 4 4 3 3 4 4 4 5 5 5 5 5 6 5 6 6
5 5 6 6 6 7 7 7 7 7 7 7 6 6 5 5 5 4 3 3 3 3 3 3 3 3 3 3 3 3 4 4 4 4 4 4 4 5 5 4 5 5 5
5 5 5 5 6 6 6 6 6 6 6 6 6 5 5 4 4 4 4 4 3 3 3 3 2 3 3 3 3 3 4 4 4 4 4 3 4 4 4 4 4 4 4
5 5 5 5 5 5 5 6 6 5 5 5 5 5 5 5 4 5 4 4 4 3 3 2 2 3 3 3 3 3 4 4 4 3 3 3 3 3 3 4 3 3 3
6 5 5 5 4 4 4 5 5 4 4 4 4 4 4 4 4 4 4 4 3 3 2 2 2 2 2 2 3 3 3 4 3 3 3 3 3 3 3 3 2 2 3
6 6 6 5 4 4 3 3 3 3 4 4 3 4 3 3 3 3 4 4 3 2 2 2 2 2 2 3 3 4 4 3 3 3 3 4 3 3 3 2 2 2 2
7 6 6 5 4 4 3 3 2 3 3 3 3 3 3 3 2 2 3 3 2 2 2 2 2 2 2 2 3 3 3 3 3 3 3 3 3 3 3 2 2 2 2
8 7 6 5 4 3 3 2 2 2 2 2 2 2 2 2 2 2 2 2 2 2 2 2 2 2 2 2 2 3 3 2 2 2 2 2 2 2 2 1 1 1 1
9 8 7 5 4 2 2 2 2 1 1 1 2 2 2 1 2 2 2 1 2 2 2 2 2 2 2 2 2 2 2 1 1 1 1 1 1 1 1 1 0 1 1
11 10 9 7 5 3 2 1 1 1 1 1 2 2 2 1 1 1 2 2 1 2 2 2 2 2 2 2 2 1 1 1 1 0 0 0 0 0 1 0 1 1 1
12 11 10 9 7 5 3 2 1 1 1 1 2 3 2 2 1 1 2 2 2 2 3 3 3 2 2 2 1 1 0 0 0 0 1 0 1 1 0 0 1 1 2
12 11 11 10 8 6 4 3 3 2 2 2 2 3 3 2 1 2 2 2 3 3 2 2 2 2 1 1 0 1 0 0 1 1 1 1 1 1 1 1 2 2 2
13 11 11 10 9 7 5 4 3 2 2 2 3 3 3 2 2 2 2 2 3 3 2 2 1 1 1 1 0 1 1 1 1 1 1 2 2 3 3 3 3 3 3
14 12 11 11 10 8 5 4 3 2 2 2 2 2 2 1 2 2 3 3 3 3 2 2 1 1 1 1 0 1 1 2 2 2 3 3 3 3 4 4 4 4 4
14 12 11 10 9 7 6 4 2 2 2 2 2 2 2 1 1 2 4 4 3 3 3 3 2 2 2 2 2 2 2 3 3 4 4 4 4 4 5 5 5 6 6
13 12 11 10 8 7 7 6 4 4 2 1 1 2 2 1 2 3 4 4 3 4 4 4 3 2 2 3 3 3 3 4 4 4 5 5 5 6 6 6 7 7 8
12 11 10 9 7 7 6 5 4 4 2 0 1 1 1 1 2 3 3 4 4 4 4 5 4 4 3 4 4 5 5 5 5 5 6 6 7 7 8 8 8 9 10
12 10 9 8 7 6 6 5 4 3 2 0 1 1 1 1 2 3 4 4 4 4 4 5 6 5 5 6 6 6 7 7 7 7 7 8 8 9 9 9 10 10 10
12 11 9 8 6 5 5 5 4 4 2 1 1 2 2 3 3 4 4 5 5 5 5 6 7 7 7 7 7 7 8 9 9 9 9 9 10 10 10 10 10 11 12
12 11 10 9 7 5 5 4 4 4 3 2 2 3 3 3 4 5 5 6 6 6 6 7 8 8 8 8 9 9 9 10 10 11 11 11 11 10 10 11 12 13 13
11 11 10 9 7 6 5 4 4 3 3 3 3 3 4 5 5 5 6 7 7 7 8 8 8 9 9 10 10 10 10 11 11 11 12 12 12 12 12 12 13 14 14
11 10 9 8 7 5 5 5 4 4 3 3 4 4 4 5 6 6 7 7 8 9 9 10 10 10 10 10 11 12 12 12 12 13 14 14 14 14 14 14 14 14 15
11 10 9 8 6 5 5 5 5 4 4 4 4 4 5 6 8 8 8 9 10 10 11 11 11 12 12 13 13 13 13 14 14 14 15 15 15 15 15 16 16 16 17
11 10 9 8 7 6 6 5 5 5 5 5 5 5 6 7 8 8 9 10 10 11 12 13 13 14 14 14 14 14 14 15 15 15 15 15 16 17 17 18 17 18 19
Wind_Direction
68 79 87 94 92 91 90 90 87 84 81 80 81 79 74 75 82 86 82 81 78 79 83 80 86 92 99 103 101 97 95 98 101 99 102 103 103 100 102 107 111 108 104
57 74 86 94 93 90 88 85 83 82 79 80 80 80 80 76 73 79 85 84 78 74 80 84 92 99 101 95 91 93 97 102 105 104 106 106 105 104 103 106 112 109 106
56 71 82 88 87 88 85 82 80 78 77 76 75 75 75 75 75 76 79 76 81 79 78 86 99 104 102 94 94 102 108 109 110 108 108 105 105 105 109 115 114 109 106
59 71 79 81 83 85 85 84 83 81 77 70 71 73 75 74 74 77 76 79 84 78 79 88 103 113 107 99 96 100 107 113 114 107 108 108 106 108 113 118 117 113 109
58 68 75 79 83 82 83 81 80 79 74 70 70 73 76 69 65 71 71 74 72 78 79 86 102 121 117 112 103 102 112 114 113 114 113 111 111 109 109 120 120 116 113
55 61 68 76 79 79 79 76 75 75 73 71 70 70 71 69 63 66 69 65 61 70 80 94 111 128 130 118 109 110 115 122 118 120 118 112 115 112 108 111 122 118 115
54 58 63 68 71 77 79 75 72 72 73 75 73 71 67 69 64 60 61 59 63 67 79 95 105 116 125 130 119 119 123 124 123 123 112 108 112 115 108 108 119 122 117
49 54 59 61 69 73 74 70 65 69 76 80 80 71 69 72 71 65 60 60 65 71 84 110 109 110 122 137 131 125 123 122 121 113 105 102 103 105 100 101 115 114 110
41 45 49 59 65 70 65 62 65 75 83 90 86 76 68 65 70 74 75 69 72 79 97 117 124 117 119 131 135 131 125 125 125 118 103 99 100 100 100 94 112 116 105
38 40 43 53 60 53 50 58 65 77 85 104 108 100 84 78 67 75 90 81 73 86 113 130 134 131 124 127 142 138 132 132 128 118 103 105 109 102 96 93 113 140 125
39 41 40 43 53 52 46 51 65 91 94 125 135 126 101 82 67 86 106 98 87 92 118 146 157 141 128 127 135 136 131 130 125 122 98 108 103 99 98 101 150 166 161
37 41 41 42 44 42 43 41 71 108 117 152 155 138 118 96 87 118 133 134 131 127 123 138 149 137 127 128 129 133 137 134 109 97 135 166 205 134 95 106 196 214 252
35 38 41 40 37 36 38 39 65 96 127 165 157 158 152 130 107 131 149 150 154 146 132 131 137 125 113 118 115 131 236 63 47 301 283 238 217 211 329 330 268 264 270
34 36 37 34 32 30 38 50 74 87 94 118 144 155 164 154 134 147 157 154 154 152 142 134 139 135 114 117 149 232 255 291 313 298 275 273 253 251 278 287 281 276 273
29 32 31 29 31 35 48 62 68 87 103 105 124 132 139 153 173 165 163 174 172 170 162 148 134 148 147 139 160 256 283 285 290 292 290 287 271 270 274 277 274 273 274
24 27 28 28 28 31 44 55 60 89 122 122 122 128 126 143 173 180 173 174 185 188 180 179 179 173 167 196 277 257 269 281 286 288 291 286 275 268 269 277 277 277 276
22 23 23 22 24 28 37 46 50 60 109 121 130 130 131 140 176 189 184 184 191 198 199 198 204 221 232 254 269 272 276 276 280 284 287 286 276 272 273 277 280 278 279
17 19 19 19 27 32 38 36 39 49 61 102 129 146 156 168 184 189 188 195 203 207 213 211 218 238 251 262 270 276 282 286 286 287 284 281 278 277 278 278 277 278 279
11 13 15 16 21 27 36 33 40 51 43 228 218 211 197 202 192 194 199 203 212 217 221 226 233 246 260 270 273 275 279 284 286 288 287 283 280 279 280 280 276 277 282
6 8 13 11 16 19 24 26 25 25 20 97 222 255 237 226 216 216 209 214 219 225 231 239 242 251 261 271 274 273 273 277 280 284 284 282 280 278 279 277 276 278 281
0 1 2 359 1 12 23 24 19 10 4 12 300 277 253 243 237 239 232 234 237 239 241 247 250 254 261 270 272 273 271 271 274 278 280 280 279 279 277 276 276 278 280
360 1 359 354 353 3 11 16 1 3 355 345 320 293 277 261 242 245 249 248 250 251 253 253 253 256 263 268 270 271 273 276 278 279 277 275 277 277 275 274 275 279 282
359 359 356 359 7 4 357 355 345 342 335 329 323 303 283 271 263 259 260 256 257 259 257 262 263 262 263 266 269 272 274 277 280 281 281 275 274 272 272 275 276 278 279
357 356 352 355 1 2 1 356 349 343 338 330 318 312 297 278 272 270 264 259 261 265 265 265 265 265 265 266 268 270 272 275 277 279 280 277 276 277 276 275 276 276 279
355 356 355 353 352 358 360 358 354 352 345 333 317 310 299 283 275 272 269 266 266 266 269 268 263 265 266 268 270 272 273 274 277 278 278 277 277 278 278 278 277 277 281
358 355 356 356 351 347 344 343 337 341 344 332 318 305 297 288 280 279 273 268 268 269 269 268 267 270 269 268 270 273 273 274 276 278 277 276 276 278 279 279 278 280 283
Height
5882 5882 5882 5882 5882 5882 5882 5883 5883 5884 5885 5886 5887 5888 5888 5889 5890 5891 5892 5892 5893 5893 5893 5894 5894 5894 5895 5895 5895 5896 5896 5896 5897 5897 5898 5898 5898 5899 5899 5899 5900 5900 5900
5883 5883 5883 5883 5883 5883 5883 5884 5884 5885 5886 5887 5888 5889 5889 5890 5891 5891 5892 5893 5893 5894 5894 5894 5894 5895 5895 5895 5896 5896 5897 5897 5897 5898 5898 5898 5899 5899 5900 5900 5901 5901 5901
5884 5884 5884 5883 5883 5884 5884 5885 5885 5886 5886 5887 5888 5889 5890 5891 5891 5892 5893 5893 5894 5894 5894 5895 5895 5895 5896 5896 5897 5897 5897 5898 5898 5898 5899 5899 5900 5900 5900 5901 5901 5902 5902
5885 5885 5885 5884 5884 5884 5885 5885 5886 5886 5887 5888 5889 5890 5890 5891 5892 5893 5893 5893 5894 5894 5895 5895 5895 5896 5896 5897 5897 5898 5898 5898 5899 5899 5899 5900 5900 5901 5901 5901 5902 5902 5903
5886 5886 5885 5885 5885 5885 5885 5886 5886 5887 5887 5888 5889 5890 5891 5891 5892 5892 5893 5893 5894 5894 5895 5895 5896 5896 5897 5897 5898 5898 5898 5899 5899 5900 5900 5901 5901 5901 5901 5902 5903 5903 5903
5887 5886 5886 5886 5886 5886 5886 5886 5887 5887 5888 5889 5889 5890 5891 5891 5892 5893 5893 5894 5894 5895 5895 5895 5896 5897 5897 5897 5898 5899 5899 5899 5900 5900 5901 5901 5901 5902 5902 5903 5903 5903 5904
5888 5887 5886 5886 5886 5886 5887 5887 5887 5888 5888 5889 5890 5890 5891 5892 5892 5893 5893 5894 5894 5895 5895 5896 5896 5897 5898 5898 5899 5899 5900 5900 5901 5901 5901 5902 5902 5902 5903 5903 5904 5904 5904
5888 5887 5887 5886 5886 5886 5887 5887 5888 5888 5888 5889 5890 5890 5891 5892 5892 5893 5894 5894 5894 5895 5895 5896 5897 5897 5898 5899 5899 5900 5900 5901 5901 5902 5902 5902 5903 5903 5903 5904 5904 5904 5905
5889 5888 5887 5887 5886 5887 5887 5887 5888 5888 5889 5889 5890 5890 5891 5892 5892 5893 5894 5894 5895 5895 5896 5896 5897 5898 5898 5899 5899 5900 5901 5901 5902 5902 5902 5903 5903 5903 5904 5904 5904 5905 5905
5890 5888 5888 5887 5887 5887 5887 5887 5887 5888 5888 5889 5890 5890 5891 5892 5892 5893 5894 5894 5895 5895 5896 5897 5897 5898 5899 5899 5900 5901 5901 5902 5902 5902 5903 5903 5903 5904 5904 5904 5905 5905 5905
5890 5889 5888 5888 5887 5887 5887 5887 5887 5887 5888 5889 5889 5890 5891 5892 5893 5893 5894 5894 5895 5896 5896 5897 5898 5898 5899 5899 5900 5901 5902 5902 5902 5903 5903 5903 5904 5904 5904 5905 5905 5905 5905
5891 5889 5888 5888 5888 5887 5887 5887 5887 5887 5888 5889 5889 5890 5891 5892 5893 5893 5894 5895 5895 5896 5896 5897 5898 5899 5899 5900 5900 5901 5902 5902 5903 5903 5903 5904 5904 5904 5904 5904 5905 5905 5905
5892 5891 5890 5889 5888 5888 5887 5887 5887 5887 5888 5888 5889 5890 5891 5892 5893 5893 5894 5895 5895 5896 5897 5897 5898 5899 5900 5900 5901 5901 5902 5902 5903 5903 5903 5904 5904 5904 5904 5904 5905 5905 5905
5893 5892 5891 5890 5889 5888 5888 5887 5887 5888 5888 5888 5889 5890 5891 5892 5893 5893 5894 5895 5896 5896 5897 5898 5899 5899 5900 5900 5901 5901 5902 5902 5903 5903 5903 5903 5904 5904 5904 5904 5904 5904 5904
5895 5893 5892 5890 5889 5889 5888 5888 5888 5888 5888 5889 5889 5890 5891 5892 5892 5893 5894 5895 5896 5897 5897 5898 5899 5899 5900 5900 5901 5901 5902 5902 5902 5903 5903 5903 5903 5904 5904 5904 5904 5904 5904
5896 5894 5893 5891 5890 5889 5889 5889 5888 5888 5888 5889 5890 5890 5891 5891 5892 5893 5894 5895 5896 5897 5897 5898 5899 5899 5900 5900 5901 5901 5901 5902 5902 5902 5902 5902 5902 5903 5903 5903 5903 5903 5903
5897 5895 5893 5892 5891 5890 5889 5889 5889 5889 5889 5889 5890 5890 5891 5891 5892 5892 5893 5894 5896 5897 5897 5898 5899 5899 5899 5900 5900 5900 5901 5901 5901 5901 5902 5902 5902 5902 5902 5902 5902 5902 5902
5897 5896 5894 5893 5891 5890 5890 5890 5889 5889 5889 5889 5890 5890 5891 5891 5891 5892 5893 5894 5895 5896 5897 5897 5898 5898 5899 5900 5900 5900 5900 5900 5901 5901 5901 5901 5901 5901 5901 5901 5901 5901 5901
5898 5897 5894 5893 5892 5891 5891 5890 5889 5889 5889 5890 5890 5890 5891 5891 5891 5892 5893 5894 5895 5895 5896 5897 5897 5898 5898 5899 5899 5899 5899 5899 5899 5900 5900 5900 5900 5900 5900 5900 5899 5899 5899
5899 5897 5895 5893 5892 5891 5891 5890 5890 5890 5890 5890 5890 5890 5891 5891 5892 5892 5893 5893 5894 5895 5895 5896 5897 5897 5897 5898 5898 5898 5898 5898 5898 5898 5898 5898 5898 5898 5898 5898 5897 5897 5897
5899 5897 5895 5893 5892 5891 5891 5890 5890 5890 5890 5890 5890 5890 5890 5891 5891 5892 5892 5893 5893 5894 5895 5895 5895 5896 5896 5896 5896 5896 5896 5896 5896 5896 5896 5896 5896 5895 5895 5895 5895 5895 5895
5899 5897 5895 5893 5890 5890 5891 5891 5891 5890 5890 5890 5890 5890 5890 5890 5890 5891 5891 5892 5892 5893 5893 5894 5894 5894 5895 5895 5895 5894 5895 5895 5894 5894 5894 5894 5893 5893 5893 5893 5893 5892 5892
5899 5897 5895 5893 5891 5891 5891 5891 5890 5890 5890 5890 5890 5889 5889 5889 5889 5890 5890 5890 5891 5891 5892 5892 5892 5892 5892 5893 5893 5893 5892 5892 5892 5892 5891 5891 5891 5891 5890 5890 5890 5889 5889
5899 5897 5895 5893 5892 5891 5891 5891 5890 5890 5889 5889 5889 5889 5888 5888 5888 5888 5888 5888 5889 5889 5890 5890 5890 5890 5890 5890 5890 5890 5890 5890 5890 5889 5889 5888 5888 5888 5887 5887 5886 5886 5886
5899 5897 5895 5894 5892 5891 5891 5890 5890 5889 5889 5889 5888 5888 5888 5887 5887 5887 5887 5887 5887 5887 5887 5887 5887 5887 5887 5887 5887 5887 5887 5887 5886 5886 5886 5885 5885 5884 5884 5884 5883 5882 5882
5899 5898 5896 5894 5893 5891 5890 5890 5890 5889 5888 5888 5887 5887 5886 5886 5885 5885 5885 5884 5884 5884 5884 5884 5884 5884 5884 5884 5884 5884 5884 5884 5883 5883 5882 5882 5881 5881 5880 5880 5879 5878 5878